TimeCST,TemperatureF,Dew PointF,Humidity,Sea Level PressureIn,VisibilityMPH,Wind Direction,Wind SpeedMPH,Gust SpeedMPH,PrecipitationIn,Events,Conditions,WindDirDegrees,DateUTC
12:15 AM,66.2,66.2,100,29.91,10.0,SSE,10.4,16.1,N/A,,Overcast,150,2014-02-12 06:15:00
12:35 AM,66.2,66.2,100,29.90,10.0,SSE,8.1,-,N/A,,Mostly Cloudy,160,2014-02-12 06:35:00
12:55 AM,68.0,66.2,94,29.89,10.0,SSE,6.9,-,N/A,,Partly Cloudy,160,2014-02-12 06:55:00
1:15 AM,68.0,66.2,94,29.89,10.0,SSE,6.9,-,N/A,,Partly Cloudy,160,2014-02-12 07:15:00
1:35 AM,68.0,66.2,94,29.87,10.0,SSE,8.1,-,N/A,,Scattered Clouds,160,2014-02-12 07:35:00
1:55 AM,68.0,66.2,94,29.87,10.0,Variable,3.5,13.8,N/A,,Overcast,0,2014-02-12 07:55:00
2:15 AM,68.0,66.2,94,29.86,10.0,Variable,5.8,11.5,N/A,,Overcast,0,2014-02-12 08:15:00
2:35 AM,68.0,66.2,94,29.85,10.0,SSE,6.9,-,N/A,,Overcast,160,2014-02-12 08:35:00
2:55 AM,68.0,68.0,100,29.85,10.0,Variable,4.6,11.5,N/A,,Overcast,0,2014-02-12 08:55:00
3:15 AM,69.8,68.0,94,29.84,10.0,Variable,4.6,-,N/A,,Overcast,0,2014-02-12 09:15:00
3:35 AM,69.8,68.0,94,29.84,9.0,Calm,Calm,12.7,N/A,,Overcast,0,2014-02-12 09:35:00
3:55 AM,69.8,69.8,100,29.84,9.0,SSW,10.4,19.6,N/A,,Overcast,210,2014-02-12 09:55:00
4:15 AM,71.6,69.8,94,29.85,9.0,WSW,9.2,19.6,N/A,,Overcast,240,2014-02-12 10:15:00
4:35 AM,71.6,69.8,94,29.86,6.0,Variable,11.5,27.6,N/A,,Overcast,0,2014-02-12 10:35:00
4:55 AM,69.8,69.8,100,29.87,3.0,WSW,27.6,-,N/A,,Mostly Cloudy,240,2014-02-12 10:55:00
5:15 AM,69.8,69.8,100,29.87,3.0,WSW,27.6,35.7,N/A,,Overcast,250,2014-02-12 11:15:00
5:35 AM,66.2,64.4,94,29.88,1.5,West,17.3,27.6,N/A,,Overcast,280,2014-02-12 11:35:00
5:55 AM,66.2,62.6,88,29.88,1.8,West,19.6,33.4,N/A,,Overcast,280,2014-02-12 11:55:00
6:15 AM,64.4,62.6,94,29.90,2.0,WNW,8.1,29.9,N/A,,Overcast,300,2014-02-12 12:15:00
6:35 AM,64.4,62.6,94,29.86,3.0,WNW,6.9,-,N/A,,Overcast,300,2014-02-12 12:35:00
6:55 AM,64.4,60.8,88,29.84,8.0,Variable,6.9,-,N/A,,Mostly Cloudy,0,2014-02-12 12:55:00
7:15 AM,64.4,60.8,88,29.88,8.0,WNW,10.4,18.4,N/A,,Overcast,300,2014-02-12 13:15:00
7:35 AM,64.4,60.8,88,29.89,9.0,WNW,8.1,21.9,N/A,,Overcast,300,2014-02-12 13:35:00
7:55 AM,62.6,59.0,88,29.88,2.0,Calm,Calm,-,N/A,,Overcast,0,2014-02-12 13:55:00
8:15 AM,62.6,60.8,94,29.87,2.0,Variable,4.6,12.7,N/A,,Mostly Cloudy,0,2014-02-12 14:15:00
8:35 AM,62.6,60.8,94,29.89,3.0,Variable,4.6,-,N/A,,Overcast,0,2014-02-12 14:35:00
8:55 AM,62.6,60.8,94,29.90,6.0,WNW,10.4,-,N/A,,Overcast,300,2014-02-12 14:55:00
9:15 AM,62.6,59.0,88,29.90,6.0,Variable,4.6,12.7,N/A,,Mostly Cloudy,0,2014-02-12 15:15:00
9:35 AM,62.6,59.0,88,29.90,2.0,Variable,6.9,12.7,N/A,,Mostly Cloudy,0,2014-02-12 15:35:00
9:55 AM,62.6,60.8,94,29.88,9.0,Calm,Calm,-,N/A,,Mostly Cloudy,0,2014-02-12 15:55:00
10:15 AM,62.6,60.8,94,29.87,10.0,Calm,Calm,-,N/A,,Mostly Cloudy,0,2014-02-12 16:15:00
10:35 AM,64.4,59.0,83,29.88,10.0,WNW,5.8,-,N/A,,Mostly Cloudy,290,2014-02-12 16:35:00
10:55 AM,64.4,59.0,83,29.88,10.0,WNW,9.2,-,N/A,,Mostly Cloudy,290,2014-02-12 16:55:00
11:15 AM,64.4,60.8,88,29.87,10.0,Variable,6.9,18.4,N/A,,Overcast,0,2014-02-12 17:15:00
11:35 AM,60.8,59.0,94,29.85,10.0,WNW,11.5,19.6,N/A,,Overcast,300,2014-02-12 17:35:00
11:55 AM,60.8,57.2,88,29.83,10.0,WNW,16.1,28.8,N/A,,Overcast,300,2014-02-12 17:55:00
12:15 PM,59.0,55.4,88,29.84,10.0,WNW,12.7,25.3,N/A,,Overcast,300,2014-02-12 18:15:00
12:35 PM,57.2,53.6,88,29.84,9.0,WNW,13.8,24.2,N/A,,Overcast,300,2014-02-12 18:35:00
12:55 PM,57.2,53.6,88,29.84,10.0,WNW,12.7,28.8,N/A,,Overcast,300,2014-02-12 18:55:00
1:15 PM,55.4,51.8,88,29.82,10.0,NW,17.3,24.2,N/A,,Overcast,310,2014-02-12 19:15:00
1:35 PM,55.4,51.8,88,29.82,10.0,WNW,13.8,24.2,N/A,,Overcast,300,2014-02-12 19:35:00
1:55 PM,55.4,51.8,88,29.82,10.0,WNW,15.0,25.3,N/A,,Overcast,300,2014-02-12 19:55:00
2:15 PM,55.4,51.8,88,29.81,10.0,WNW,9.2,23.0,N/A,,Overcast,300,2014-02-12 20:15:00
2:35 PM,55.4,51.8,88,29.81,10.0,Variable,11.5,23.0,N/A,,Overcast,0,2014-02-12 20:35:00
2:55 PM,55.4,51.8,88,29.82,10.0,WNW,9.2,24.2,N/A,,Overcast,300,2014-02-12 20:55:00
3:15 PM,55.4,50.0,82,29.82,10.0,WNW,16.1,25.3,N/A,,Overcast,300,2014-02-12 21:15:00
3:35 PM,55.4,51.8,88,29.81,9.0,NW,12.7,23.0,N/A,,Overcast,310,2014-02-12 21:35:00
3:55 PM,53.6,50.0,88,29.81,10.0,NW,15.0,23.0,N/A,,Overcast,310,2014-02-12 21:55:00
4:15 PM,53.6,50.0,88,29.82,9.0,WNW,13.8,23.0,N/A,,Overcast,300,2014-02-12 22:15:00
4:35 PM,53.6,50.0,88,29.82,10.0,NW,13.8,25.3,N/A,,Overcast,310,2014-02-12 22:35:00
4:55 PM,53.6,50.0,88,29.83,9.0,WNW,9.2,24.2,N/A,,Overcast,300,2014-02-12 22:55:00
5:15 PM,53.6,50.0,88,29.83,10.0,NW,11.5,20.7,N/A,,Overcast,310,2014-02-12 23:15:00
5:35 PM,53.6,50.0,88,29.84,10.0,WNW,11.5,25.3,N/A,,Overcast,300,2014-02-12 23:35:00
5:55 PM,53.6,50.0,88,29.84,10.0,NW,11.5,23.0,N/A,,Overcast,310,2014-02-12 23:55:00
6:15 PM,53.6,50.0,88,29.84,10.0,NW,17.3,25.3,N/A,,Overcast,310,2014-02-13 00:15:00
6:35 PM,53.6,50.0,88,29.85,10.0,NW,11.5,24.2,N/A,,Overcast,310,2014-02-13 00:35:00
6:55 PM,53.6,50.0,88,29.86,10.0,NW,12.7,27.6,N/A,,Overcast,310,2014-02-13 00:55:00
7:15 PM,53.6,50.0,88,29.86,10.0,WNW,13.8,24.2,N/A,,Overcast,300,2014-02-13 01:15:00
7:35 PM,53.6,50.0,88,29.87,10.0,WNW,11.5,23.0,N/A,,Overcast,300,2014-02-13 01:35:00
7:55 PM,53.6,50.0,88,29.87,10.0,WNW,11.5,23.0,N/A,,Overcast,300,2014-02-13 01:55:00
8:15 PM,53.6,50.0,88,29.88,10.0,WNW,12.7,25.3,N/A,,Overcast,300,2014-02-13 02:15:00
8:35 PM,53.6,50.0,88,29.89,10.0,WNW,13.8,23.0,N/A,,Overcast,300,2014-02-13 02:35:00
8:55 PM,53.6,50.0,88,29.89,10.0,NW,15.0,24.2,N/A,,Overcast,310,2014-02-13 02:55:00
9:15 PM,53.6,50.0,88,29.90,10.0,WNW,11.5,20.7,N/A,,Overcast,300,2014-02-13 03:15:00
9:35 PM,53.6,50.0,88,29.90,10.0,NW,11.5,21.9,N/A,,Overcast,310,2014-02-13 03:35:00
9:55 PM,53.6,50.0,88,29.90,10.0,WNW,12.7,23.0,N/A,,Overcast,300,2014-02-13 03:55:00
10:15 PM,53.6,50.0,88,29.91,10.0,WNW,11.5,23.0,N/A,,Overcast,300,2014-02-13 04:15:00
10:35 PM,53.6,48.2,82,29.90,10.0,WNW,12.7,24.2,N/A,,Overcast,300,2014-02-13 04:35:00
10:55 PM,53.6,48.2,82,29.90,10.0,WNW,15.0,24.2,N/A,,Overcast,300,2014-02-13 04:55:00
11:15 PM,53.6,48.2,82,29.90,10.0,Variable,10.4,21.9,N/A,,Overcast,0,2014-02-13 05:15:00
11:35 PM,53.6,48.2,82,29.90,10.0,NW,8.1,20.7,N/A,,Overcast,310,2014-02-13 05:35:00
11:55 PM,53.6,48.2,82,29.90,10.0,WNW,11.5,24.2,N/A,,Overcast,300,2014-02-13 05:55:00